owner,sensor,date,latitude,longitude,air_temperature,qcFlag 
COMPS,ioos:station:USF.COMPS:CAM:1,2008-11-01T00:00:00Z,27.7650,-82.6490,21.91,1111122 
COMPS,ioos:station:USF.COMPS:CAM:1,2008-11-01T01:00:00Z,27.7650,-82.6490,20.75,1111122 
COMPS,ioos:station:USF.COMPS:CAM:1,2008-11-01T02:00:00Z,27.7650,-82.6490,19.66,1111122 
COMPS,ioos:station:USF.COMPS:CAM:1,2008-11-01T03:00:00Z,27.7650,-82.6490,18.76,1111122 
COMPS,ioos:station:USF.COMPS:CAM:1,2008-11-01T04:00:00Z,27.7650,-82.6490,18.12,1111122 
COMPS,ioos:station:USF.COMPS:CAM:1,2008-11-01T05:00:00Z,27.7650,-82.6490,17.81,1111122 
COMPS,ioos:station:USF.COMPS:CAM:1,2008-11-01T06:00:00Z,27.7650,-82.6490,17.65,1111122 
COMPS,ioos:station:USF.COMPS:CAM:1,2008-11-01T07:00:00Z,27.7650,-82.6490,17.19,1111122 
COMPS,ioos:station:USF.COMPS:CAM:1,2008-11-01T08:00:00Z,27.7650,-82.6490,16.91,1111122 
COMPS,ioos:station:USF.COMPS:CAM:1,2008-11-01T09:00:00Z,27.7650,-82.6490,16.77,1111122 
COMPS,ioos:station:USF.COMPS:CAM:1,2008-11-01T10:00:00Z,27.7650,-82.6490,16.48,1111122 
COMPS,ioos:station:USF.COMPS:CAM:1,2008-11-01T11:00:00Z,27.7650,-82.6490,16.18,1111122 
COMPS,ioos:station:USF.COMPS:CAM:1,2008-11-01T12:00:00Z,27.7650,-82.6490,16.1,1111122 
COMPS,ioos:station:USF.COMPS:CAM:1,2008-11-01T13:00:00Z,27.7650,-82.6490,16.68,1111122 
COMPS,ioos:station:USF.COMPS:CAM:1,2008-11-01T14:00:00Z,27.7650,-82.6490,18.65,1111122 
COMPS,ioos:station:USF.COMPS:CAM:1,2008-11-01T15:00:00Z,27.7650,-82.6490,20.75,1111122 
COMPS,ioos:station:USF.COMPS:CAM:1,2008-11-01T16:00:00Z,27.7650,-82.6490,22.21,1111122 
COMPS,ioos:station:USF.COMPS:CAM:1,2008-11-01T17:00:00Z,27.7650,-82.6490,23.19,1111122 
COMPS,ioos:station:USF.COMPS:CAM:1,2008-11-01T18:00:00Z,27.7650,-82.6490,24.07,1111122 
COMPS,ioos:station:USF.COMPS:CAM:1,2008-11-01T19:00:00Z,27.7650,-82.6490,24.66,1111122 
COMPS,ioos:station:USF.COMPS:CAM:1,2008-11-01T20:00:00Z,27.7650,-82.6490,25.02,1111122 
COMPS,ioos:station:USF.COMPS:CAM:1,2008-11-01T21:00:00Z,27.7650,-82.6490,24.76,1111122 
COMPS,ioos:station:USF.COMPS:CAM:1,2008-11-01T22:00:00Z,27.7650,-82.6490,22.85,1111122 
COMPS,ioos:station:USF.COMPS:CAM:1,2008-11-02T00:00:00Z,27.7650,-82.6490,21.91,1111122 
COMPS,ioos:station:USF.COMPS:CAM:1,2008-11-02T01:00:00Z,27.7650,-82.6490,21.77,1111122 
COMPS,ioos:station:USF.COMPS:CAM:1,2008-11-02T02:00:00Z,27.7650,-82.6490,21.23,1111122 
COMPS,ioos:station:USF.COMPS:CAM:1,2008-11-02T03:00:00Z,27.7650,-82.6490,21.36,1111122 
COMPS,ioos:station:USF.COMPS:CAM:1,2008-11-02T04:00:00Z,27.7650,-82.6490,20.83,1111122 
COMPS,ioos:station:USF.COMPS:CAM:1,2008-11-02T05:00:00Z,27.7650,-82.6490,20.13,1111122 
COMPS,ioos:station:USF.COMPS:CAM:1,2008-11-02T06:00:00Z,27.7650,-82.6490,19.78,1111122 
COMPS,ioos:station:USF.COMPS:CAM:1,2008-11-02T07:00:00Z,27.7650,-82.6490,19.35,1111122 
COMPS,ioos:station:USF.COMPS:CAM:1,2008-11-02T08:00:00Z,27.7650,-82.6490,19.03,1111122 
COMPS,ioos:station:USF.COMPS:CAM:1,2008-11-02T09:00:00Z,27.7650,-82.6490,19.04,1111122 
COMPS,ioos:station:USF.COMPS:CAM:1,2008-11-02T10:00:00Z,27.7650,-82.6490,19.15,1111122 
COMPS,ioos:station:USF.COMPS:CAM:1,2008-11-02T11:00:00Z,27.7650,-82.6490,18.94,1111122 
COMPS,ioos:station:USF.COMPS:CAM:1,2008-11-02T12:00:00Z,27.7650,-82.6490,19.04,1111122 
COMPS,ioos:station:USF.COMPS:CAM:1,2008-11-02T13:00:00Z,27.7650,-82.6490,19.66,1111122 
COMPS,ioos:station:USF.COMPS:CAM:1,2008-11-02T14:00:00Z,27.7650,-82.6490,20.32,1111122 
COMPS,ioos:station:USF.COMPS:CAM:1,2008-11-02T15:00:00Z,27.7650,-82.6490,21.82,1111122 
COMPS,ioos:station:USF.COMPS:CAM:1,2008-11-02T16:00:00Z,27.7650,-82.6490,22.49,1111122 
COMPS,ioos:station:USF.COMPS:CAM:1,2008-11-02T17:00:00Z,27.7650,-82.6490,23.35,1111122 
COMPS,ioos:station:USF.COMPS:CAM:1,2008-11-02T18:00:00Z,27.7650,-82.6490,23.74,1111122 
COMPS,ioos:station:USF.COMPS:CAM:1,2008-11-02T19:00:00Z,27.7650,-82.6490,23.23,1111122 
COMPS,ioos:station:USF.COMPS:CAM:1,2008-11-02T20:00:00Z,27.7650,-82.6490,22.98,1111122 
COMPS,ioos:station:USF.COMPS:CAM:1,2008-11-02T21:00:00Z,27.7650,-82.6490,22.6,1111122 
COMPS,ioos:station:USF.COMPS:CAM:1,2008-11-02T22:00:00Z,27.7650,-82.6490,20.14,1111122 
COMPS,ioos:station:USF.COMPS:CAM:1,2008-11-02T23:00:00Z,27.7650,-82.6490,19.82,1111122 
COMPS,ioos:station:USF.COMPS:CAM:1,2008-11-03T00:00:00Z,27.7650,-82.6490,19.99,1111122 
COMPS,ioos:station:USF.COMPS:CAM:1,2008-11-03T01:00:00Z,27.7650,-82.6490,20.25,1111122 
COMPS,ioos:station:USF.COMPS:CAM:1,2008-11-03T02:00:00Z,27.7650,-82.6490,19.87,1111122 
COMPS,ioos:station:USF.COMPS:CAM:1,2008-11-03T03:00:00Z,27.7650,-82.6490,19.59,1111122 
COMPS,ioos:station:USF.COMPS:CAM:1,2008-11-03T04:00:00Z,27.7650,-82.6490,19.53,1111122 
COMPS,ioos:station:USF.COMPS:CAM:1,2008-11-03T05:00:00Z,27.7650,-82.6490,19.41,1111122 
COMPS,ioos:station:USF.COMPS:CAM:1,2008-11-03T06:00:00Z,27.7650,-82.6490,19.2,1111122 
COMPS,ioos:station:USF.COMPS:CAM:1,2008-11-03T07:00:00Z,27.7650,-82.6490,18.98,1111122 
COMPS,ioos:station:USF.COMPS:CAM:1,2008-11-03T08:00:00Z,27.7650,-82.6490,18.94,1111122 
COMPS,ioos:station:USF.COMPS:CAM:1,2008-11-03T09:00:00Z,27.7650,-82.6490,18.7,1111122 
COMPS,ioos:station:USF.COMPS:CAM:1,2008-11-03T10:00:00Z,27.7650,-82.6490,18.52,1111122 
COMPS,ioos:station:USF.COMPS:CAM:1,2008-11-03T11:00:00Z,27.7650,-82.6490,18.32,1111122 
COMPS,ioos:station:USF.COMPS:CAM:1,2008-11-03T12:00:00Z,27.7650,-82.6490,18.39,1111122 
COMPS,ioos:station:USF.COMPS:CAM:1,2008-11-03T13:00:00Z,27.7650,-82.6490,18.92,1111122 
COMPS,ioos:station:USF.COMPS:CAM:1,2008-11-03T14:00:00Z,27.7650,-82.6490,20.34,1111122 
COMPS,ioos:station:USF.COMPS:CAM:1,2008-11-03T15:00:00Z,27.7650,-82.6490,22.19,1111122 
COMPS,ioos:station:USF.COMPS:CAM:1,2008-11-03T16:00:00Z,27.7650,-82.6490,23.31,1111122 
COMPS,ioos:station:USF.COMPS:CAM:1,2008-11-03T17:00:00Z,27.7650,-82.6490,24.46,1111122 
COMPS,ioos:station:USF.COMPS:CAM:1,2008-11-03T18:00:00Z,27.7650,-82.6490,25.49,1111122 
COMPS,ioos:station:USF.COMPS:CAM:1,2008-11-03T19:00:00Z,27.7650,-82.6490,26.35,1111122 
COMPS,ioos:station:USF.COMPS:CAM:1,2008-11-03T20:00:00Z,27.7650,-82.6490,26.89,1111122 
COMPS,ioos:station:USF.COMPS:CAM:1,2008-11-03T21:00:00Z,27.7650,-82.6490,27.26,1111122 
COMPS,ioos:station:USF.COMPS:CAM:1,2008-11-03T22:00:00Z,27.7650,-82.6490,26.55,1111122 
COMPS,ioos:station:USF.COMPS:CAM:1,2008-11-03T23:00:00Z,27.7650,-82.6490,24.34,1111122 
COMPS,ioos:station:USF.COMPS:CAM:1,2008-11-04T00:00:00Z,27.7650,-82.6490,23.27,1111122 
COMPS,ioos:station:USF.COMPS:CAM:1,2008-11-04T01:00:00Z,27.7650,-82.6490,22.55,1111122 
COMPS,ioos:station:USF.COMPS:CAM:1,2008-11-04T02:00:00Z,27.7650,-82.6490,22.33,1111122 
COMPS,ioos:station:USF.COMPS:CAM:1,2008-11-04T03:00:00Z,27.7650,-82.6490,21.9,1111122 
COMPS,ioos:station:USF.COMPS:CAM:1,2008-11-04T04:00:00Z,27.7650,-82.6490,21.05,1111122 
COMPS,ioos:station:USF.COMPS:CAM:1,2008-11-04T05:00:00Z,27.7650,-82.6490,20.45,1111122 
COMPS,ioos:station:USF.COMPS:CAM:1,2008-11-04T06:00:00Z,27.7650,-82.6490,20.14,1111122 
COMPS,ioos:station:USF.COMPS:CAM:1,2008-11-04T07:00:00Z,27.7650,-82.6490,19.8,1111122 
COMPS,ioos:station:USF.COMPS:CAM:1,2008-11-04T08:00:00Z,27.7650,-82.6490,19.37,1111122 
COMPS,ioos:station:USF.COMPS:CAM:1,2008-11-04T09:00:00Z,27.7650,-82.6490,19.17,1111122 
COMPS,ioos:station:USF.COMPS:CAM:1,2008-11-04T10:00:00Z,27.7650,-82.6490,19.19,1111122 
COMPS,ioos:station:USF.COMPS:CAM:1,2008-11-04T11:00:00Z,27.7650,-82.6490,19.07,1111122 
COMPS,ioos:station:USF.COMPS:CAM:1,2008-11-04T12:00:00Z,27.7650,-82.6490,18.77,1111122 
COMPS,ioos:station:USF.COMPS:CAM:1,2008-11-04T13:00:00Z,27.7650,-82.6490,18.9,1111122 
COMPS,ioos:station:USF.COMPS:CAM:1,2008-11-04T14:00:00Z,27.7650,-82.6490,19.09,1111122 
COMPS,ioos:station:USF.COMPS:CAM:1,2008-11-04T15:00:00Z,27.7650,-82.6490,19.06,1111122 
COMPS,ioos:station:USF.COMPS:CAM:1,2008-11-04T16:00:00Z,27.7650,-82.6490,19.06,1111122 
COMPS,ioos:station:USF.COMPS:CAM:1,2008-11-04T17:00:00Z,27.7650,-82.6490,19.41,1111122 
COMPS,ioos:station:USF.COMPS:CAM:1,2008-11-04T18:00:00Z,27.7650,-82.6490,19.42,1111122 
COMPS,ioos:station:USF.COMPS:CAM:1,2008-11-04T19:00:00Z,27.7650,-82.6490,19.65,1111122 
COMPS,ioos:station:USF.COMPS:CAM:1,2008-11-04T20:00:00Z,27.7650,-82.6490,19.33,1111122 
COMPS,ioos:station:USF.COMPS:CAM:1,2008-11-04T21:00:00Z,27.7650,-82.6490,19.17,1111122 
COMPS,ioos:station:USF.COMPS:CAM:1,2008-11-04T22:00:00Z,27.7650,-82.6490,18.77,1111122 
COMPS,ioos:station:USF.COMPS:CAM:1,2008-11-04T23:00:00Z,27.7650,-82.6490,18.64,1111122 
COMPS,ioos:station:USF.COMPS:CAM:1,2008-11-05T00:00:00Z,27.7650,-82.6490,18.91,1111122 
COMPS,ioos:station:USF.COMPS:CAM:1,2008-11-05T01:00:00Z,27.7650,-82.6490,19.04,1111122 
COMPS,ioos:station:USF.COMPS:CAM:1,2008-11-05T02:00:00Z,27.7650,-82.6490,19.03,1111122 
COMPS,ioos:station:USF.COMPS:CAM:1,2008-11-05T03:00:00Z,27.7650,-82.6490,19.01,1111122 
COMPS,ioos:station:USF.COMPS:CAM:1,2008-11-05T04:00:00Z,27.7650,-82.6490,19.01,1111122 
COMPS,ioos:station:USF.COMPS:CAM:1,2008-11-05T05:00:00Z,27.7650,-82.6490,18.78,1111122 
COMPS,ioos:station:USF.COMPS:CAM:1,2008-11-05T06:00:00Z,27.7650,-82.6490,18.7,1111122 
COMPS,ioos:station:USF.COMPS:CAM:1,2008-11-05T07:00:00Z,27.7650,-82.6490,18.5,1111122 
COMPS,ioos:station:USF.COMPS:CAM:1,2008-11-05T08:00:00Z,27.7650,-82.6490,18.41,1111122 
COMPS,ioos:station:USF.COMPS:CAM:1,2008-11-05T09:00:00Z,27.7650,-82.6490,18.3,1111122 
COMPS,ioos:station:USF.COMPS:CAM:1,2008-11-05T10:00:00Z,27.7650,-82.6490,18.2,1111122 
COMPS,ioos:station:USF.COMPS:CAM:1,2008-11-05T11:00:00Z,27.7650,-82.6490,18.24,1111122 
COMPS,ioos:station:USF.COMPS:CAM:1,2008-11-05T12:00:00Z,27.7650,-82.6490,18.49,1111122 
COMPS,ioos:station:USF.COMPS:CAM:1,2008-11-05T13:00:00Z,27.7650,-82.6490,18.48,1111122 
COMPS,ioos:station:USF.COMPS:CAM:1,2008-11-05T14:00:00Z,27.7650,-82.6490,18.89,1111122 
COMPS,ioos:station:USF.COMPS:CAM:1,2008-11-05T15:00:00Z,27.7650,-82.6490,18.66,1111122 
COMPS,ioos:station:USF.COMPS:CAM:1,2008-11-05T16:00:00Z,27.7650,-82.6490,19.0,1111122 
COMPS,ioos:station:USF.COMPS:CAM:1,2008-11-05T17:00:00Z,27.7650,-82.6490,18.88,1111122 
COMPS,ioos:station:USF.COMPS:CAM:1,2008-11-05T18:00:00Z,27.7650,-82.6490,19.06,1111122 
COMPS,ioos:station:USF.COMPS:CAM:1,2008-11-05T19:00:00Z,27.7650,-82.6490,19.36,1111122 
COMPS,ioos:station:USF.COMPS:CAM:1,2008-11-05T21:00:00Z,27.7650,-82.6490,19.42,1111122 
COMPS,ioos:station:USF.COMPS:CAM:1,2008-11-05T22:00:00Z,27.7650,-82.6490,19.44,1111122 
COMPS,ioos:station:USF.COMPS:CAM:1,2008-11-05T23:00:00Z,27.7650,-82.6490,19.65,1111122 
COMPS,ioos:station:USF.COMPS:CAM:1,2008-11-06T00:00:00Z,27.7650,-82.6490,19.57,1111122 
COMPS,ioos:station:USF.COMPS:CAM:1,2008-11-06T01:00:00Z,27.7650,-82.6490,19.12,1111122 
COMPS,ioos:station:USF.COMPS:CAM:1,2008-11-06T02:00:00Z,27.7650,-82.6490,19.05,1111122 
COMPS,ioos:station:USF.COMPS:CAM:1,2008-11-06T03:00:00Z,27.7650,-82.6490,19.03,1111122 
COMPS,ioos:station:USF.COMPS:CAM:1,2008-11-06T04:00:00Z,27.7650,-82.6490,19.15,1111122 
COMPS,ioos:station:USF.COMPS:CAM:1,2008-11-06T05:00:00Z,27.7650,-82.6490,19.12,1111122 
COMPS,ioos:station:USF.COMPS:CAM:1,2008-11-06T06:00:00Z,27.7650,-82.6490,18.9,1111122 
COMPS,ioos:station:USF.COMPS:CAM:1,2008-11-06T07:00:00Z,27.7650,-82.6490,18.97,1111122 
COMPS,ioos:station:USF.COMPS:CAM:1,2008-11-06T08:00:00Z,27.7650,-82.6490,18.73,1111122 
COMPS,ioos:station:USF.COMPS:CAM:1,2008-11-06T09:00:00Z,27.7650,-82.6490,18.51,1111122 
COMPS,ioos:station:USF.COMPS:CAM:1,2008-11-06T10:00:00Z,27.7650,-82.6490,16.35,1111122 
COMPS,ioos:station:USF.COMPS:CAM:1,2008-11-06T11:00:00Z,27.7650,-82.6490,17.12,1111122 
COMPS,ioos:station:USF.COMPS:CAM:1,2008-11-06T12:00:00Z,27.7650,-82.6490,17.4,1111122 
COMPS,ioos:station:USF.COMPS:CAM:1,2008-11-06T13:00:00Z,27.7650,-82.6490,17.53,1111122 
COMPS,ioos:station:USF.COMPS:CAM:1,2008-11-06T14:00:00Z,27.7650,-82.6490,18.56,1111122 
COMPS,ioos:station:USF.COMPS:CAM:1,2008-11-06T15:00:00Z,27.7650,-82.6490,20.01,1111122 
COMPS,ioos:station:USF.COMPS:CAM:1,2008-11-06T16:00:00Z,27.7650,-82.6490,21.22,1111122 
COMPS,ioos:station:USF.COMPS:CAM:1,2008-11-06T17:00:00Z,27.7650,-82.6490,21.74,1111122 
COMPS,ioos:station:USF.COMPS:CAM:1,2008-11-06T18:00:00Z,27.7650,-82.6490,23.41,1111122 
COMPS,ioos:station:USF.COMPS:CAM:1,2008-11-06T19:00:00Z,27.7650,-82.6490,23.11,1111122 
COMPS,ioos:station:USF.COMPS:CAM:1,2008-11-06T20:00:00Z,27.7650,-82.6490,22.72,1111122 
COMPS,ioos:station:USF.COMPS:CAM:1,2008-11-06T21:00:00Z,27.7650,-82.6490,23.07,1111122 
COMPS,ioos:station:USF.COMPS:CAM:1,2008-11-06T22:00:00Z,27.7650,-82.6490,21.65,1111122 
COMPS,ioos:station:USF.COMPS:CAM:1,2008-11-06T23:00:00Z,27.7650,-82.6490,20.54,1111122 
COMPS,ioos:station:USF.COMPS:CAM:1,2008-11-07T00:00:00Z,27.7650,-82.6490,19.62,1111122 
COMPS,ioos:station:USF.COMPS:CAM:1,2008-11-07T01:00:00Z,27.7650,-82.6490,18.99,1111122 
COMPS,ioos:station:USF.COMPS:CAM:1,2008-11-07T02:00:00Z,27.7650,-82.6490,18.39,1111122 
COMPS,ioos:station:USF.COMPS:CAM:1,2008-11-07T03:00:00Z,27.7650,-82.6490,18.16,1111122 
COMPS,ioos:station:USF.COMPS:CAM:1,2008-11-07T04:00:00Z,27.7650,-82.6490,17.78,1111122 
COMPS,ioos:station:USF.COMPS:CAM:1,2008-11-07T05:00:00Z,27.7650,-82.6490,17.78,1111122 
COMPS,ioos:station:USF.COMPS:CAM:1,2008-11-07T06:00:00Z,27.7650,-82.6490,17.78,1111122 
COMPS,ioos:station:USF.COMPS:CAM:1,2008-11-07T07:00:00Z,27.7650,-82.6490,17.55,1111122 
COMPS,ioos:station:USF.COMPS:CAM:1,2008-11-07T08:00:00Z,27.7650,-82.6490,17.98,1111122 
COMPS,ioos:station:USF.COMPS:CAM:1,2008-11-07T09:00:00Z,27.7650,-82.6490,16.86,1111122 
COMPS,ioos:station:USF.COMPS:CAM:1,2008-11-07T10:00:00Z,27.7650,-82.6490,15.93,1111122 
COMPS,ioos:station:USF.COMPS:CAM:1,2008-11-07T11:00:00Z,27.7650,-82.6490,16.65,1111122 
COMPS,ioos:station:USF.COMPS:CAM:1,2008-11-07T12:00:00Z,27.7650,-82.6490,16.51,1111122 
COMPS,ioos:station:USF.COMPS:CAM:1,2008-11-07T13:00:00Z,27.7650,-82.6490,19.04,1111122 
COMPS,ioos:station:USF.COMPS:CAM:1,2008-11-07T14:00:00Z,27.7650,-82.6490,21.41,1111122 
COMPS,ioos:station:USF.COMPS:CAM:1,2008-11-07T15:00:00Z,27.7650,-82.6490,22.81,1111122 
COMPS,ioos:station:USF.COMPS:CAM:1,2008-11-07T16:00:00Z,27.7650,-82.6490,23.34,1111122 
COMPS,ioos:station:USF.COMPS:CAM:1,2008-11-07T17:00:00Z,27.7650,-82.6490,24.35,1111122 
COMPS,ioos:station:USF.COMPS:CAM:1,2008-11-07T18:00:00Z,27.7650,-82.6490,26.01,1111122 
COMPS,ioos:station:USF.COMPS:CAM:1,2008-11-07T19:00:00Z,27.7650,-82.6490,26.22,1111122 
COMPS,ioos:station:USF.COMPS:CAM:1,2008-11-07T20:00:00Z,27.7650,-82.6490,25.65,1111122 
COMPS,ioos:station:USF.COMPS:CAM:1,2008-11-07T21:00:00Z,27.7650,-82.6490,24.81,1111122 
COMPS,ioos:station:USF.COMPS:CAM:1,2008-11-07T22:00:00Z,27.7650,-82.6490,23.84,1111122 
COMPS,ioos:station:USF.COMPS:CAM:1,2008-11-07T23:00:00Z,27.7650,-82.6490,22.26,1111122 
COMPS,ioos:station:USF.COMPS:CAM:1,2008-11-08T00:00:00Z,27.7650,-82.6490,21.48,1111122 
COMPS,ioos:station:USF.COMPS:CAM:1,2008-11-08T01:00:00Z,27.7650,-82.6490,20.96,1111122 
COMPS,ioos:station:USF.COMPS:CAM:1,2008-11-08T02:00:00Z,27.7650,-82.6490,20.33,1111122 
COMPS,ioos:station:USF.COMPS:CAM:1,2008-11-08T03:00:00Z,27.7650,-82.6490,19.9,1111122 
COMPS,ioos:station:USF.COMPS:CAM:1,2008-11-08T04:00:00Z,27.7650,-82.6490,19.44,1111122 
COMPS,ioos:station:USF.COMPS:CAM:1,2008-11-08T05:00:00Z,27.7650,-82.6490,18.48,1111122 
COMPS,ioos:station:USF.COMPS:CAM:1,2008-11-08T06:00:00Z,27.7650,-82.6490,17.82,1111122 
COMPS,ioos:station:USF.COMPS:CAM:1,2008-11-08T07:00:00Z,27.7650,-82.6490,17.01,1111122 
COMPS,ioos:station:USF.COMPS:CAM:1,2008-11-08T08:00:00Z,27.7650,-82.6490,16.71,1111122 
COMPS,ioos:station:USF.COMPS:CAM:1,2008-11-08T09:00:00Z,27.7650,-82.6490,16.48,1111122 
COMPS,ioos:station:USF.COMPS:CAM:1,2008-11-08T10:00:00Z,27.7650,-82.6490,16.35,1111122 
COMPS,ioos:station:USF.COMPS:CAM:1,2008-11-08T11:00:00Z,27.7650,-82.6490,15.21,1111122 
COMPS,ioos:station:USF.COMPS:CAM:1,2008-11-08T12:00:00Z,27.7650,-82.6490,15.43,1111122 
COMPS,ioos:station:USF.COMPS:CAM:1,2008-11-08T13:00:00Z,27.7650,-82.6490,18.72,1111122 
COMPS,ioos:station:USF.COMPS:CAM:1,2008-11-08T14:00:00Z,27.7650,-82.6490,21.29,1111122 
COMPS,ioos:station:USF.COMPS:CAM:1,2008-11-08T15:00:00Z,27.7650,-82.6490,22.81,1111122 
COMPS,ioos:station:USF.COMPS:CAM:1,2008-11-08T16:00:00Z,27.7650,-82.6490,23.68,1111122 
COMPS,ioos:station:USF.COMPS:CAM:1,2008-11-08T17:00:00Z,27.7650,-82.6490,24.49,1111122 
COMPS,ioos:station:USF.COMPS:CAM:1,2008-11-08T18:00:00Z,27.7650,-82.6490,23.19,1111122 
COMPS,ioos:station:USF.COMPS:CAM:1,2008-11-08T19:00:00Z,27.7650,-82.6490,24.82,1111122 
COMPS,ioos:station:USF.COMPS:CAM:1,2008-11-08T20:00:00Z,27.7650,-82.6490,24.81,1111122 
COMPS,ioos:station:USF.COMPS:CAM:1,2008-11-08T21:00:00Z,27.7650,-82.6490,23.97,1111122 
COMPS,ioos:station:USF.COMPS:CAM:1,2008-11-08T22:00:00Z,27.7650,-82.6490,23.38,1111122 
COMPS,ioos:station:USF.COMPS:CAM:1,2008-11-08T23:00:00Z,27.7650,-82.6490,20.94,1111122 
COMPS,ioos:station:USF.COMPS:CAM:1,2008-11-09T00:00:00Z,27.7650,-82.6490,19.63,1111122 
COMPS,ioos:station:USF.COMPS:CAM:1,2008-11-09T01:00:00Z,27.7650,-82.6490,19.26,1111122 
COMPS,ioos:station:USF.COMPS:CAM:1,2008-11-09T02:00:00Z,27.7650,-82.6490,18.74,1111122 
COMPS,ioos:station:USF.COMPS:CAM:1,2008-11-09T03:00:00Z,27.7650,-82.6490,17.07,1111122 
COMPS,ioos:station:USF.COMPS:CAM:1,2008-11-09T04:00:00Z,27.7650,-82.6490,17.58,1111122 
COMPS,ioos:station:USF.COMPS:CAM:1,2008-11-09T05:00:00Z,27.7650,-82.6490,17.92,1111122 
COMPS,ioos:station:USF.COMPS:CAM:1,2008-11-09T06:00:00Z,27.7650,-82.6490,17.07,1111122 
COMPS,ioos:station:USF.COMPS:CAM:1,2008-11-09T07:00:00Z,27.7650,-82.6490,16.77,1111122 
COMPS,ioos:station:USF.COMPS:CAM:1,2008-11-09T08:00:00Z,27.7650,-82.6490,16.52,1111122 
COMPS,ioos:station:USF.COMPS:CAM:1,2008-11-09T09:00:00Z,27.7650,-82.6490,16.43,1111122 
COMPS,ioos:station:USF.COMPS:CAM:1,2008-11-09T10:00:00Z,27.7650,-82.6490,16.09,1111122 
COMPS,ioos:station:USF.COMPS:CAM:1,2008-11-09T11:00:00Z,27.7650,-82.6490,15.44,1111122 
COMPS,ioos:station:USF.COMPS:CAM:1,2008-11-09T12:00:00Z,27.7650,-82.6490,15.23,1111122 
COMPS,ioos:station:USF.COMPS:CAM:1,2008-11-09T13:00:00Z,27.7650,-82.6490,18.5,1111122 
COMPS,ioos:station:USF.COMPS:CAM:1,2008-11-09T14:00:00Z,27.7650,-82.6490,19.75,1111122 
COMPS,ioos:station:USF.COMPS:CAM:1,2008-11-09T15:00:00Z,27.7650,-82.6490,19.59,1111122 
COMPS,ioos:station:USF.COMPS:CAM:1,2008-11-09T16:00:00Z,27.7650,-82.6490,21.17,1111122 
COMPS,ioos:station:USF.COMPS:CAM:1,2008-11-09T17:00:00Z,27.7650,-82.6490,22.52,1111122 
COMPS,ioos:station:USF.COMPS:CAM:1,2008-11-09T18:00:00Z,27.7650,-82.6490,23.44,1111122 
COMPS,ioos:station:USF.COMPS:CAM:1,2008-11-09T19:00:00Z,27.7650,-82.6490,23.95,1111122 
COMPS,ioos:station:USF.COMPS:CAM:1,2008-11-09T20:00:00Z,27.7650,-82.6490,23.05,1111122 
COMPS,ioos:station:USF.COMPS:CAM:1,2008-11-09T21:00:00Z,27.7650,-82.6490,23.79,1111122 
COMPS,ioos:station:USF.COMPS:CAM:1,2008-11-09T22:00:00Z,27.7650,-82.6490,22.65,1111122 
COMPS,ioos:station:USF.COMPS:CAM:1,2008-11-09T23:00:00Z,27.7650,-82.6490,20.59,1111122 
COMPS,ioos:station:USF.COMPS:CAM:1,2008-11-10T00:00:00Z,27.7650,-82.6490,18.86,1111122 
COMPS,ioos:station:USF.COMPS:CAM:1,2008-11-10T01:00:00Z,27.7650,-82.6490,18.86,1111122 
COMPS,ioos:station:USF.COMPS:CAM:1,2008-11-10T02:00:00Z,27.7650,-82.6490,17.83,1111122 
COMPS,ioos:station:USF.COMPS:CAM:1,2008-11-10T03:00:00Z,27.7650,-82.6490,16.09,1111122 
COMPS,ioos:station:USF.COMPS:CAM:1,2008-11-10T04:00:00Z,27.7650,-82.6490,15.49,1111122 
COMPS,ioos:station:USF.COMPS:CAM:1,2008-11-10T05:00:00Z,27.7650,-82.6490,13.41,1111122 
COMPS,ioos:station:USF.COMPS:CAM:1,2008-11-10T06:00:00Z,27.7650,-82.6490,13.14,1111122 
COMPS,ioos:station:USF.COMPS:CAM:1,2008-11-10T07:00:00Z,27.7650,-82.6490,13.82,1111122 
COMPS,ioos:station:USF.COMPS:CAM:1,2008-11-10T08:00:00Z,27.7650,-82.6490,14.24,1111122 
COMPS,ioos:station:USF.COMPS:CAM:1,2008-11-10T09:00:00Z,27.7650,-82.6490,14.84,1111122 
COMPS,ioos:station:USF.COMPS:CAM:1,2008-11-10T10:00:00Z,27.7650,-82.6490,14.59,1111122 
COMPS,ioos:station:USF.COMPS:CAM:1,2008-11-10T11:00:00Z,27.7650,-82.6490,14.47,1111122 
COMPS,ioos:station:USF.COMPS:CAM:1,2008-11-10T12:00:00Z,27.7650,-82.6490,14.72,1111122 
COMPS,ioos:station:USF.COMPS:CAM:1,2008-11-10T13:00:00Z,27.7650,-82.6490,16.16,1111122 
COMPS,ioos:station:USF.COMPS:CAM:1,2008-11-10T14:00:00Z,27.7650,-82.6490,18.25,1111122 
COMPS,ioos:station:USF.COMPS:CAM:1,2008-11-10T15:00:00Z,27.7650,-82.6490,19.52,1111122 
COMPS,ioos:station:USF.COMPS:CAM:1,2008-11-10T16:00:00Z,27.7650,-82.6490,20.77,1111122 
COMPS,ioos:station:USF.COMPS:CAM:1,2008-11-10T17:00:00Z,27.7650,-82.6490,21.7,1111122 
COMPS,ioos:station:USF.COMPS:CAM:1,2008-11-10T18:00:00Z,27.7650,-82.6490,22.66,1111122 
COMPS,ioos:station:USF.COMPS:CAM:1,2008-11-10T19:00:00Z,27.7650,-82.6490,23.65,1111122 
COMPS,ioos:station:USF.COMPS:CAM:1,2008-11-10T20:00:00Z,27.7650,-82.6490,24.35,1111122 
COMPS,ioos:station:USF.COMPS:CAM:1,2008-11-10T21:00:00Z,27.7650,-82.6490,24.58,1111122 
COMPS,ioos:station:USF.COMPS:CAM:1,2008-11-10T22:00:00Z,27.7650,-82.6490,24.11,1111122 
COMPS,ioos:station:USF.COMPS:CAM:1,2008-11-10T23:00:00Z,27.7650,-82.6490,21.99,1111122 
COMPS,ioos:station:USF.COMPS:CAM:1,2008-11-11T00:00:00Z,27.7650,-82.6490,20.91,1111122 
COMPS,ioos:station:USF.COMPS:CAM:1,2008-11-11T01:00:00Z,27.7650,-82.6490,19.17,1111122 
COMPS,ioos:station:USF.COMPS:CAM:1,2008-11-11T02:00:00Z,27.7650,-82.6490,19.18,1111122 
COMPS,ioos:station:USF.COMPS:CAM:1,2008-11-11T03:00:00Z,27.7650,-82.6490,19.47,1111122 
COMPS,ioos:station:USF.COMPS:CAM:1,2008-11-11T04:00:00Z,27.7650,-82.6490,18.51,1111122 
COMPS,ioos:station:USF.COMPS:CAM:1,2008-11-11T05:00:00Z,27.7650,-82.6490,17.63,1111122 
COMPS,ioos:station:USF.COMPS:CAM:1,2008-11-11T06:00:00Z,27.7650,-82.6490,16.93,1111122 
COMPS,ioos:station:USF.COMPS:CAM:1,2008-11-11T07:00:00Z,27.7650,-82.6490,16.89,1111122 
COMPS,ioos:station:USF.COMPS:CAM:1,2008-11-11T08:00:00Z,27.7650,-82.6490,15.84,1111122 
COMPS,ioos:station:USF.COMPS:CAM:1,2008-11-11T09:00:00Z,27.7650,-82.6490,15.92,1111122 
COMPS,ioos:station:USF.COMPS:CAM:1,2008-11-11T10:00:00Z,27.7650,-82.6490,15.52,1111122 
COMPS,ioos:station:USF.COMPS:CAM:1,2008-11-11T11:00:00Z,27.7650,-82.6490,15.92,1111122 
COMPS,ioos:station:USF.COMPS:CAM:1,2008-11-11T12:00:00Z,27.7650,-82.6490,16.1,1111122 
COMPS,ioos:station:USF.COMPS:CAM:1,2008-11-11T13:00:00Z,27.7650,-82.6490,17.43,1111122 
COMPS,ioos:station:USF.COMPS:CAM:1,2008-11-11T14:00:00Z,27.7650,-82.6490,19.44,1111122 
COMPS,ioos:station:USF.COMPS:CAM:1,2008-11-11T15:00:00Z,27.7650,-82.6490,20.54,1111122 
COMPS,ioos:station:USF.COMPS:CAM:1,2008-11-11T16:00:00Z,27.7650,-82.6490,21.95,1111122 
COMPS,ioos:station:USF.COMPS:CAM:1,2008-11-11T17:00:00Z,27.7650,-82.6490,23.7,1111122 
COMPS,ioos:station:USF.COMPS:CAM:1,2008-11-11T18:00:00Z,27.7650,-82.6490,25.18,1111122 
COMPS,ioos:station:USF.COMPS:CAM:1,2008-11-11T19:00:00Z,27.7650,-82.6490,26.12,1111122 
COMPS,ioos:station:USF.COMPS:CAM:1,2008-11-11T20:00:00Z,27.7650,-82.6490,26.47,1111122 
COMPS,ioos:station:USF.COMPS:CAM:1,2008-11-11T21:00:00Z,27.7650,-82.6490,26.66,1111122 
COMPS,ioos:station:USF.COMPS:CAM:1,2008-11-11T22:00:00Z,27.7650,-82.6490,25.98,1111122 
COMPS,ioos:station:USF.COMPS:CAM:1,2008-11-11T23:00:00Z,27.7650,-82.6490,24.63,1111122 
COMPS,ioos:station:USF.COMPS:CAM:1,2008-11-12T00:00:00Z,27.7650,-82.6490,23.68,1111122 
COMPS,ioos:station:USF.COMPS:CAM:1,2008-11-12T01:00:00Z,27.7650,-82.6490,22.92,1111122 
COMPS,ioos:station:USF.COMPS:CAM:1,2008-11-12T02:00:00Z,27.7650,-82.6490,22.14,1111122 
COMPS,ioos:station:USF.COMPS:CAM:1,2008-11-12T03:00:00Z,27.7650,-82.6490,21.35,1111122 
COMPS,ioos:station:USF.COMPS:CAM:1,2008-11-12T04:00:00Z,27.7650,-82.6490,21.11,1111122 
COMPS,ioos:station:USF.COMPS:CAM:1,2008-11-12T05:00:00Z,27.7650,-82.6490,20.94,1111122 
COMPS,ioos:station:USF.COMPS:CAM:1,2008-11-12T06:00:00Z,27.7650,-82.6490,20.82,1111122 
COMPS,ioos:station:USF.COMPS:CAM:1,2008-11-12T07:00:00Z,27.7650,-82.6490,20.86,1111122 
COMPS,ioos:station:USF.COMPS:CAM:1,2008-11-12T08:00:00Z,27.7650,-82.6490,20.62,1111122 
COMPS,ioos:station:USF.COMPS:CAM:1,2008-11-12T09:00:00Z,27.7650,-82.6490,20.6,1111122 